RH
96 95 96 100 98 98 99 98 97 100 100 95 95 95 67 36 33 33 33 32 32 31 31 32 38 42 48 42 42 48 53 62 61 60 52 52 53 59 68 64 55 57 52 46 42 41 39
98 96 100 98 99 99 100 99 99 96 94 96 97 97 47 34 38 38 36 33 32 31 28 30 36 42 53 43 37 49 54 61 59 57 50 52 56 53 60 61 64 56 57 55 48 45 42
98 97 100 99 99 99 100 100 97 97 94 91 89 69 38 38 39 39 39 35 33 30 28 32 35 50 48 40 40 47 53 56 61 59 55 53 57 59 65 62 47 52 64 53 49 46 45
100 98 100 99 98 100 99 98 82 69 63 50 61 41 36 39 39 37 34 33 32 30 30 34 37 53 51 36 35 46 44 47 51 56 57 56 57 59 59 53 52 57 56 72 47 46 43
96 100 100 98 100 100 100 99 83 69 65 51 44 34 37 40 39 35 32 30 30 30 35 37 48 48 41 32 40 37 43 44 46 51 55 54 53 61 56 73 78 85 96 69 58 41 46
96 98 96 99 97 99 95 97 63 58 56 48 39 36 37 39 36 34 32 28 35 33 42 49 43 44 38 30 32 37 39 47 49 50 55 64 66 68 72 73 77 66 66 62 76 60 49
97 94 95 96 96 95 97 80 69 62 57 48 39 34 39 37 34 34 30 43 48 50 37 33 30 27 26 32 34 40 38 42 44 52 62 48 63 55 46 46 46 51 53 58 52 65 57
99 99 98 100 100 97 76 66 68 70 56 48 38 34 38 38 35 30 41 34 54 56 46 25 29 32 30 38 38 34 38 42 41 56 40 44 58 36 37 40 45 48 52 56 40 47 56
93 97 97 98 99 93 73 66 63 66 63 49 36 35 37 37 37 42 43 54 51 60 52 34 29 30 32 36 36 33 35 37 44 46 40 47 38 32 34 38 39 39 42 44 45 41 68
82 84 79 76 70 68 64 62 60 61 61 54 41 36 36 36 48 40 47 49 49 60 69 39 31 35 34 37 45 30 34 39 38 43 38 40 30 33 36 38 34 48 36 40 45 56 85
81 79 78 74 73 69 66 64 61 56 54 53 46 37 40 41 52 46 50 37 44 58 72 36 30 33 31 42 38 40 36 40 47 38 34 52 34 44 42 32 33 43 40 45 46 56 62
86 85 83 80 78 77 73 70 62 59 58 50 49 41 41 51 52 40 38 40 52 86 67 32 30 35 34 38 32 29 39 39 37 43 38 39 29 35 37 37 37 36 44 39 46 52 85
93 94 94 91 86 83 81 77 72 65 60 57 46 44 46 47 59 38 42 59 89 96 36 29 33 30 35 35 32 32 36 38 42 62 61 47 38 33 37 43 35 38 47 90 76 84 68
98 94 88 91 96 94 88 84 79 73 63 58 52 49 58 48 43 43 61 64 70 50 24 32 33 36 39 33 30 32 35 42 40 36 56 72 66 29 35 35 43 47 45 81 68 72 66
100 100 99 98 86 91 94 93 86 78 69 59 46 67 70 64 46 51 71 96 84 32 28 33 31 36 32 33 32 28 31 34 31 34 47 56 43 32 33 33 39 42 50 37 52 50 82
92 91 93 98 100 98 91 92 94 90 72 60 69 68 61 57 52 63 69 79 35 28 35 35 34 29 32 29 31 28 26 31 35 34 35 40 57 28 31 36 43 46 40 60 65 75 67
100 100 100 99 98 98 100 99 93 92 82 67 76 69 70 51 54 67 88 74 32 33 34 37 32 34 30 31 30 30 26 34 34 36 36 40 41 45 30 37 35 44 43 36 38 46 71
100 98 100 100 97 87 90 90 99 100 86 75 78 78 67 54 74 66 67 39 36 43 41 44 42 37 33 31 33 31 29 25 34 35 40 46 46 60 35 37 32 35 37 33 48 48 44
96 96 99 99 100 100 97 90 91 99 94 79 82 68 66 69 75 69 44 36 39 45 48 48 48 43 35 38 39 34 31 39 40 41 39 37 48 67 46 42 37 42 33 31 35 39 57
93 96 96 96 99 100 100 100 98 99 100 78 79 81 77 73 63 60 47 44 43 44 40 39 38 42 45 46 38 37 38 40 43 43 44 39 44 45 57 43 40 46 39 37 37 71 53
77 89 93 91 91 95 97 99 100 96 100 96 73 70 51 81 72 63 48 41 40 52 50 43 45 47 46 46 38 42 38 38 53 56 49 48 61 54 52 47 47 47 46 45 49 50 55
82 76 87 87 82 90 90 94 97 100 97 100 84 60 49 57 46 48 64 53 48 42 50 52 53 43 44 44 35 38 34 36 35 59 56 52 68 52 62 47 45 51 43 43 45 44 43
86 87 93 94 85 83 81 82 92 98 98 100 86 77 75 66 47 43 47 46 42 41 41 35 44 46 46 42 34 34 33 33 33 48 61 59 68 66 73 56 53 59 42 42 40 36 36
86 85 78 91 94 87 86 88 94 85 93 100 98 97 97 86 68 51 36 36 35 39 46 34 36 44 40 40 40 40 41 42 42 44 42 52 58 63 83 69 82 45 39 40 39 41 39
85 83 85 83 87 90 84 88 93 82 87 98 100 99 96 93 72 62 48 38 31 30 45 46 39 38 41 41 48 51 51 48 52 56 54 50 56 72 86 78 55 41 39 39 42 48 40
82 80 84 86 90 84 88 81 90 90 98 99 97 94 98 97 78 66 70 56 43 36 36 47 49 41 42 52 55 65 67 48 73 78 61 59 60 70 70 81 77 40 35 31 34 51 41
86 79 83 86 89 85 86 83 80 93 92 98 99 95 98 95 71 71 77 68 52 40 40 42 67 62 52 64 70 70 63 38 67 73 94 85 79 86 85 86 77 41 38 34 47 56 46
85 89 88 87 81 90 85 85 82 84 93 94 93 96 99 86 78 61 61 70 61 50 43 53 64 63 72 74 72 64 59 50 45 51 74 81 87 89 78 88 94 43 40 49 50 49 47
84 79 86 89 87 87 92 86 81 75 85 85 87 95 99 98 79 55 50 52 59 51 49 51 45 58 59 71 67 59 60 53 48 56 48 63 58 75 68 73 61 53 49 48 48 52 52
Wind_Speed
11 11 12 13 13 14 14 15 15 16 16 16 15 13 11 9 9 10 11 11 10 9 10 12 11 12 7 1 4 7 11 10 10 10 10 8 9 7 8 5 9 9 9 10 9 9 11
11 11 12 13 14 14 15 16 16 16 17 17 17 14 10 9 10 10 11 11 11 10 9 11 9 10 6 4 5 4 7 8 8 9 8 9 6 9 6 7 7 8 12 13 14 12 13
11 12 13 13 14 15 16 16 17 18 18 19 18 14 8 9 11 12 11 11 11 9 8 9 7 6 6 1 2 5 4 6 6 7 7 6 5 6 6 9 8 9 14 13 14 12 13
12 12 13 14 15 16 16 17 18 19 21 24 20 12 8 11 11 11 10 10 9 8 7 6 5 3 5 3 4 4 4 7 7 5 5 5 4 7 4 6 6 8 10 5 5 6 6
11 13 13 15 15 16 17 18 18 19 21 24 22 12 11 11 11 10 8 6 6 7 7 5 3 4 2 3 2 4 3 5 9 9 8 7 5 3 5 4 4 2 6 11 6 5 4
10 11 12 14 14 15 16 17 18 20 22 26 23 12 13 12 11 9 7 5 6 6 4 4 7 4 4 4 7 5 5 4 3 9 8 4 5 5 4 3 8 9 7 8 11 6 7
9 9 11 12 13 15 15 16 18 19 22 25 21 13 14 11 10 9 7 4 2 3 6 5 3 4 4 10 5 6 3 6 8 7 4 5 2 4 7 6 8 7 12 12 10 2 6
9 11 12 13 14 14 15 16 18 20 21 24 21 13 13 12 8 8 8 4 3 1 5 5 5 4 5 2 4 7 0 4 4 7 9 3 7 4 6 7 8 10 12 10 5 0 8
9 10 12 13 14 15 16 16 18 19 22 23 21 14 14 11 6 6 7 4 3 5 4 2 1 3 2 1 4 2 1 5 6 6 7 6 8 5 8 10 10 11 9 8 10 7 2
10 10 12 13 15 16 17 19 18 20 21 22 22 15 14 10 2 4 3 5 4 4 3 3 3 2 2 3 4 1 2 2 4 5 6 8 1 6 8 12 4 8 3 7 11 8 2
11 12 13 14 15 16 17 18 19 19 21 22 22 16 13 9 5 2 2 3 4 1 3 3 3 2 2 3 8 4 2 3 5 9 1 8 6 6 6 4 4 9 10 14 10 8 5
12 13 14 15 16 17 17 19 19 20 20 21 20 18 10 5 3 4 4 2 2 3 3 1 1 2 4 5 3 1 5 3 6 5 7 12 5 1 4 10 8 11 11 15 6 3 2
13 14 15 16 17 17 18 19 21 21 21 21 19 15 7 4 3 4 3 4 2 1 1 2 3 3 5 3 3 1 3 6 3 7 4 7 3 4 0 6 2 5 7 4 5 3 2
16 15 15 16 17 17 18 20 21 22 24 24 21 11 5 4 3 2 2 1 1 4 2 2 1 7 4 4 2 2 4 3 2 4 6 3 7 1 2 2 4 5 3 2 4 2 5
10 11 13 15 15 16 18 19 20 22 24 24 21 7 2 5 2 1 2 0 5 2 1 3 4 3 4 2 2 4 4 0 3 5 3 5 5 2 2 1 1 5 3 0 3 5 2
15 15 15 15 15 14 15 16 19 21 23 23 18 6 3 3 3 2 1 5 2 1 2 2 2 1 3 4 2 2 2 2 1 3 3 2 6 3 1 2 4 3 6 3 2 4 5
16 16 15 15 13 13 12 14 16 18 21 15 6 3 1 3 3 2 3 5 2 3 4 4 1 2 5 2 1 4 4 2 1 4 2 4 3 6 5 3 3 2 2 3 1 2 1
14 16 17 18 17 13 15 13 12 15 18 7 4 3 3 6 1 3 3 3 1 4 2 3 3 3 4 0 3 3 3 0 4 1 3 2 3 5 7 5 4 2 3 2 1 4 3
15 16 17 18 19 18 17 13 13 11 9 7 3 3 3 4 4 4 3 4 3 6 5 6 6 6 3 4 3 6 3 3 4 3 2 2 3 5 2 2 1 3 2 2 4 2 5
16 16 17 17 17 19 19 18 14 11 7 2 3 3 2 2 3 3 4 6 5 3 3 4 2 4 4 5 7 3 4 4 4 3 3 1 3 5 5 7 6 7 6 7 3 2 5
17 17 17 17 17 17 18 18 19 10 6 5 3 4 2 3 5 8 5 5 4 5 5 7 4 10 8 5 5 6 5 3 4 5 3 2 4 5 8 11 12 15 16 10 9 8 4
16 17 17 17 16 16 15 16 18 20 10 8 3 2 3 5 9 7 8 6 12 7 9 6 7 10 13 6 7 4 6 5 4 5 5 4 4 5 7 12 8 8 16 13 8 8 8
15 16 16 14 16 17 17 16 16 16 14 5 4 13 4 5 7 10 11 10 9 7 8 11 14 6 11 18 8 3 2 2 1 6 7 6 3 3 6 7 12 7 5 4 3 2 2
15 17 17 16 17 17 18 19 16 14 11 10 7 9 4 10 11 16 16 13 13 12 15 4 6 8 3 6 5 2 2 5 6 6 5 3 3 2 4 7 3 2 4 4 5 6 6
15 16 16 15 15 16 18 19 18 16 14 15 12 4 4 11 13 21 19 20 21 15 10 9 5 1 7 4 2 3 3 2 3 3 2 5 2 2 2 2 8 3 1 1 2 2 4
17 17 17 17 18 18 18 19 19 18 18 19 16 16 7 7 21 18 18 17 15 15 14 7 2 1 3 3 3 6 6 6 5 3 1 2 4 3 2 3 4 3 4 1 1 3 3
19 19 19 20 20 20 20 21 20 19 19 20 20 19 12 8 25 19 13 13 17 17 12 6 6 3 4 4 5 5 5 6 6 8 6 4 3 6 6 5 7 3 4 2 4 2 3
20 20 21 21 23 23 22 22 23 23 22 21 22 18 17 9 25 22 22 28 21 14 14 4 4 3 2 4 5 5 5 7 5 7 8 8 7 4 4 4 9 7 4 5 6 4 3
20 22 23 25 24 23 23 23 24 25 25 25 27 19 25 13 22 18 49 54 31 28 8 5 6 6 8 4 4 4 3 3 6 4 5 4 7 5 8 5 3 2 3 5 3 5 4
Wind_Direction
33 28 23 20 18 15 13 11 9 8 4 359 352 339 320 310 303 297 292 291 298 312 328 338 340 344 338 17 18 332 336 338 356 344 345 347 335 353 352 322 323 280 317 324 325 305 286
32 28 21 18 18 15 11 9 6 7 4 359 351 340 324 314 315 310 297 288 286 294 315 327 330 338 299 25 324 322 330 340 353 350 347 20 352 327 297 313 281 326 309 298 289 273 272
27 24 21 19 18 13 12 8 6 5 1 357 353 347 338 324 317 313 302 288 279 282 303 320 319 344 276 315 310 304 312 317 329 337 333 11 337 325 316 306 334 297 289 283 267 245 245
23 20 19 17 16 13 10 8 8 7 5 1 355 353 347 332 324 318 308 296 281 278 296 309 312 325 280 239 288 276 298 302 283 294 298 317 305 282 263 285 296 303 287 294 309 278 246
22 19 17 17 14 10 9 7 8 7 4 1 357 354 348 340 334 329 318 302 279 279 291 294 314 223 280 314 258 301 272 290 311 280 251 276 268 260 273 253 285 343 289 306 310 303 261
21 17 13 14 11 9 7 6 9 7 5 3 360 359 351 347 347 349 339 311 283 282 305 263 263 263 209 331 331 276 265 271 300 305 271 210 208 248 215 259 323 324 322 305 307 258 229
8 13 10 10 7 4 4 6 7 6 4 3 4 1 354 350 354 353 358 337 244 192 235 269 323 280 310 337 285 217 281 286 245 244 261 172 310 335 343 318 312 309 294 292 307 353 301
4 5 5 6 5 1 4 3 3 2 3 2 4 2 358 353 355 13 12 354 41 318 307 190 272 276 268 359 290 196 27 272 328 293 292 266 253 24 304 291 274 265 267 272 266 213 10
350 357 357 356 359 359 358 359 359 0 360 1 1 360 355 356 10 33 46 56 348 335 259 157 225 290 5 316 292 316 257 312 256 289 327 296 263 357 302 307 296 308 288 325 318 315 197
356 358 356 360 1 359 358 357 357 356 356 358 1 357 354 350 56 3 78 341 359 346 294 177 171 139 203 263 258 143 153 285 281 281 322 269 216 283 303 294 19 303 38 298 309 328 282
3 5 1 0 360 358 358 354 354 353 353 353 356 354 354 11 329 324 291 336 345 22 30 211 145 152 179 227 313 164 150 199 259 292 344 258 329 342 298 344 348 257 322 291 276 280 321
347 350 353 353 354 354 355 354 352 351 349 349 350 348 350 358 330 320 320 338 65 34 279 195 207 243 281 180 211 248 211 216 258 280 231 247 248 187 294 310 255 284 291 294 191 246 356
332 337 340 343 343 345 348 351 349 349 345 343 344 340 339 344 315 320 332 271 29 122 250 359 331 341 331 268 306 144 315 302 8 352 335 310 277 147 122 303 127 326 340 333 357 7 238
305 313 319 327 332 337 341 343 346 347 345 340 340 327 308 268 262 310 318 340 92 267 317 139 234 288 254 16 214 263 283 283 142 297 292 325 331 203 148 354 300 303 350 112 306 351 288
328 334 323 310 309 321 332 337 341 343 344 340 341 332 283 263 208 145 274 284 222 229 129 349 298 279 183 179 264 324 234 257 46 29 342 340 288 175 181 349 327 329 11 23 278 274 25
321 316 316 313 320 304 310 323 333 338 342 342 337 310 204 277 175 150 205 239 251 64 133 190 224 188 297 3 295 299 274 76 37 28 9 326 299 298 134 225 240 263 326 25 305 339 325
10 4 2 351 321 318 324 308 319 331 338 343 327 306 225 177 144 244 213 234 208 162 192 198 226 239 241 286 296 283 284 141 140 135 304 304 238 290 296 192 22 285 315 278 154 179 250
359 2 359 1 350 327 319 316 315 324 336 352 306 264 184 158 245 225 233 222 12 170 156 221 256 241 213 147 267 267 262 187 102 31 265 82 301 284 257 108 61 324 314 304 37 317 289
358 353 356 358 357 354 353 326 318 312 328 342 279 262 192 152 229 213 227 245 230 184 201 190 219 232 182 211 228 214 264 134 145 202 309 40 251 307 326 40 162 247 178 205 271 292 242
354 355 352 351 356 355 359 354 347 336 278 296 277 282 145 214 290 256 259 224 219 199 250 207 218 137 178 233 227 250 222 169 161 201 111 75 272 229 241 278 324 291 286 296 195 259 281
339 342 345 348 347 344 354 357 356 324 344 241 210 248 273 210 235 230 235 271 198 204 228 187 215 207 187 223 198 218 224 214 170 154 187 218 261 250 263 284 282 277 280 272 235 225 235
340 337 337 342 339 344 346 347 348 353 317 219 288 248 326 288 282 254 217 221 229 226 168 217 237 206 214 219 206 170 178 185 230 150 195 175 270 295 279 265 283 273 270 255 235 236 261
338 335 342 349 348 344 338 335 340 344 355 300 282 286 281 237 266 258 230 245 254 229 218 227 208 217 208 226 234 359 348 272 182 166 196 177 217 349 273 352 314 298 352 1 123 47 235
327 335 327 326 335 339 341 335 327 324 325 320 314 319 266 261 242 243 264 255 259 241 243 258 193 211 160 92 83 74 243 242 233 226 193 203 176 212 281 317 355 240 28 7 100 36 354
318 319 326 329 332 332 339 338 329 310 304 297 314 233 285 271 264 260 257 258 272 273 256 249 226 335 145 122 162 251 198 247 221 76 219 180 237 248 247 295 281 40 69 41 227 92 18
308 313 315 321 321 321 326 331 331 320 315 311 293 284 242 283 251 264 271 266 259 258 251 195 112 264 197 183 174 208 219 211 194 139 336 235 232 208 188 230 250 216 158 90 296 221 78
299 306 306 308 315 314 314 319 319 319 320 307 297 280 264 258 264 261 257 257 241 257 258 197 150 176 207 202 201 201 229 177 172 181 176 164 181 213 219 251 280 178 147 152 162 187 98
295 292 294 296 299 306 306 312 312 313 308 309 290 280 253 267 271 247 252 237 252 263 241 164 98 214 157 209 188 204 218 201 207 162 173 165 163 190 186 203 250 153 126 197 155 133 117
280 282 286 285 293 295 298 303 305 307 308 305 293 293 281 267 267 254 240 235 234 246 293 195 213 162 184 183 204 210 195 155 180 220 183 194 188 178 185 212 152 106 124 127 122 118 124